2019-073B

Last updated on Nov. 14, 2019, 12:02 a.m. UTC

1 44710U 19073B   19316.47763537  .00031094 -39030-6  30971-3 0  9990
2 44710  28.4909 303.6499 7235995 183.8246 163.7341  2.39186222   196
UTC
Height (km)
Latitude
Longitude
Inclination
Orbital Period
UTC large
Height (km)
Speed (km/s)
/
Latitude / Longitude
Inclination (degrees)
Orbital Period (minutes)
Azimuth
Elevation
Range (km)
Doppler Factor
iOS Compass Heading
iOS Angle

Next 30 passes for location: Hong Kong

Rise time Rise Azimuth (degrees) Set time Set Azimuth (degrees) Duration Max altitude (degrees)

No matching passes for this satellites